contact:dominique.lefevre@mio.osupytheas.fr, maurice.libes@osupytheas.fr, didier.mallarino@osupytheas.fr
Project:EMSO http://www.emso-fr.org/EMSO-France
Depth: 2436.0 m
Title:EMSO Ligure Ouest : Data MII capteur MICROCAT
DateTime_Computer,Latitude,Longitude,Temperature,Conductivity,Pressure,DateTime_Instrument
DateTime_Computer,Latitude,Longitude,degC,S m-1,dbar,DateTime_Instrument
2019-06-23T00:00:40Z,42.805,6.029,13.2961,4.59965,2470.007,2019-6-23T02:00:57Z
2019-06-23T00:03:43Z,42.805,6.029,13.2955,4.59964,2469.96,2019-6-23T02:04:00Z
2019-06-23T00:06:46Z,42.805,6.029,13.2960,4.59964,2469.96,2019-6-23T02:07:03Z
2019-06-23T00:09:49Z,42.805,6.029,13.2961,4.59958,2469.97,2019-6-23T02:10:06Z
2019-06-23T00:12:52Z,42.805,6.029,13.2958,4.59963,2469.984,2019-6-23T02:13:09Z
2019-06-23T00:15:55Z,42.805,6.029,13.2961,4.59962,2469.97,2019-6-23T02:16:12Z
2019-06-23T00:18:58Z,42.805,6.029,13.2958,4.59961,2469.96,2019-6-23T02:19:15Z
2019-06-23T00:22:01Z,42.805,6.029,13.2958,4.59958,2469.947,2019-6-23T02:22:18Z
2019-06-23T00:25:04Z,42.805,6.029,13.2959,4.59956,2469.947,2019-6-23T02:25:21Z
2019-06-23T00:28:07Z,42.805,6.029,13.2959,4.59958,2469.984,2019-6-23T02:28:24Z
2019-06-23T00:31:10Z,42.805,6.029,13.2961,4.59976,2469.947,2019-6-23T02:31:26Z
2019-06-23T00:34:13Z,42.805,6.029,13.2962,4.59959,2469.947,2019-6-23T02:34:29Z
2019-06-23T00:37:16Z,42.805,6.029,13.2955,4.59966,2469.97,2019-6-23T02:37:32Z
2019-06-23T00:40:19Z,42.805,6.029,13.2958,4.59960,2469.947,2019-6-23T02:40:35Z
2019-06-23T00:43:22Z,42.805,6.029,13.2957,4.59956,2469.96,2019-6-23T02:43:38Z
2019-06-23T00:46:25Z,42.805,6.029,13.2965,4.59958,2469.947,2019-6-23T02:46:41Z
2019-06-23T00:49:27Z,42.805,6.029,13.2964,4.59957,2469.947,2019-6-23T02:49:44Z
2019-06-23T00:52:30Z,42.805,6.029,13.2961,4.59956,2469.96,2019-6-23T02:52:47Z
2019-06-23T00:55:33Z,42.805,6.029,13.2952,4.59956,2469.947,2019-6-23T02:55:50Z
2019-06-23T00:58:36Z,42.805,6.029,13.2962,4.59958,2469.947,2019-6-23T02:58:53Z
2019-06-23T01:01:39Z,42.805,6.029,13.2953,4.59958,2469.96,2019-6-23T03:01:56Z
2019-06-23T01:04:42Z,42.805,6.029,13.2957,4.59958,2469.96,2019-6-23T03:04:59Z
2019-06-23T01:07:45Z,42.805,6.029,13.2955,4.59956,2469.96,2019-6-23T03:08:02Z
2019-06-23T01:10:48Z,42.805,6.029,13.2953,4.59958,2469.923,2019-6-23T03:11:05Z
2019-06-23T01:13:51Z,42.805,6.029,13.2957,4.59956,2469.96,2019-6-23T03:14:08Z
2019-06-23T01:16:54Z,42.805,6.029,13.2957,4.59957,2469.96,2019-6-23T03:17:11Z
2019-06-23T01:19:57Z,42.805,6.029,13.2957,4.59958,2469.97,2019-6-23T03:20:14Z
2019-06-23T01:23:00Z,42.805,6.029,13.2957,4.59957,2469.96,2019-6-23T03:23:17Z
2019-06-23T01:26:03Z,42.805,6.029,13.2957,4.59958,2469.923,2019-6-23T03:26:20Z
2019-06-23T01:29:06Z,42.805,6.029,13.2959,4.59958,2469.937,2019-6-23T03:29:22Z
2019-06-23T01:32:09Z,42.805,6.029,13.2952,4.59963,2469.96,2019-6-23T03:32:25Z
2019-06-23T01:35:12Z,42.805,6.029,13.2958,4.59958,2469.9,2019-6-23T03:35:28Z
2019-06-23T01:38:15Z,42.805,6.029,13.2958,4.59957,2469.9,2019-6-23T03:38:31Z
2019-06-23T01:41:18Z,42.805,6.029,13.2956,4.59961,2469.947,2019-6-23T03:41:34Z
2019-06-23T01:44:21Z,42.805,6.029,13.2957,4.59967,2469.937,2019-6-23T03:44:37Z
2019-06-23T01:47:23Z,42.805,6.029,13.2958,4.59963,2469.923,2019-6-23T03:47:40Z
2019-06-23T01:50:26Z,42.805,6.029,13.2957,4.59957,2469.947,2019-6-23T03:50:43Z
2019-06-23T01:53:29Z,42.805,6.029,13.2954,4.59961,2469.923,2019-6-23T03:53:46Z
2019-06-23T01:56:32Z,42.805,6.029,13.2956,4.59958,2469.947,2019-6-23T03:56:49Z
2019-06-23T01:59:35Z,42.805,6.029,13.2957,4.59959,2469.9,2019-6-23T03:59:52Z
2019-06-23T02:02:38Z,42.805,6.029,13.2957,4.59966,2469.876,2019-6-23T04:02:55Z
2019-06-23T02:05:41Z,42.805,6.029,13.2957,4.59958,2469.9,2019-6-23T04:05:58Z
2019-06-23T02:08:44Z,42.805,6.029,13.2954,4.59965,2469.923,2019-6-23T04:09:01Z
2019-06-23T02:11:47Z,42.805,6.029,13.2957,4.59963,2469.9,2019-6-23T04:12:04Z
2019-06-23T02:14:50Z,42.805,6.029,13.2957,4.59959,2469.923,2019-6-23T04:15:07Z
2019-06-23T02:17:53Z,42.805,6.029,13.2957,4.59957,2469.9,2019-6-23T04:18:10Z
2019-06-23T02:20:56Z,42.805,6.029,13.2957,4.59956,2469.9,2019-6-23T04:21:13Z
2019-06-23T02:23:59Z,42.805,6.029,13.2957,4.59958,2469.914,2019-6-23T04:24:16Z
2019-06-23T02:27:02Z,42.805,6.029,13.2957,4.59959,2469.89,2019-6-23T04:27:18Z
2019-06-23T02:30:05Z,42.805,6.029,13.2955,4.59962,2469.9,2019-6-23T04:30:21Z
2019-06-23T02:33:08Z,42.805,6.029,13.2956,4.59966,2469.9,2019-6-23T04:33:24Z
2019-06-23T02:36:11Z,42.805,6.029,13.2954,4.59963,2469.914,2019-6-23T04:36:27Z
2019-06-23T02:39:14Z,42.805,6.029,13.2956,4.59968,2469.9,2019-6-23T04:39:30Z
2019-06-23T02:42:17Z,42.805,6.029,13.2958,4.59960,2469.876,2019-6-23T04:42:33Z
2019-06-23T02:45:20Z,42.805,6.029,13.2955,4.59958,2469.914,2019-6-23T04:45:36Z
2019-06-23T02:48:22Z,42.805,6.029,13.2959,4.59960,2469.89,2019-6-23T04:48:39Z
2019-06-23T02:51:25Z,42.805,6.029,13.2957,4.59960,2469.886,2019-6-23T04:51:42Z
2019-06-23T02:54:28Z,42.805,6.029,13.2955,4.59960,2469.914,2019-6-23T04:54:45Z
2019-06-23T02:57:31Z,42.805,6.029,13.2958,4.59963,2469.914,2019-6-23T04:57:48Z
2019-06-23T03:00:34Z,42.805,6.029,13.2957,4.59961,2469.89,2019-6-23T05:00:51Z
2019-06-23T03:03:37Z,42.805,6.029,13.2958,4.59959,2469.89,2019-6-23T05:03:54Z
2019-06-23T03:06:40Z,42.805,6.029,13.2958,4.59964,2469.89,2019-6-23T05:06:57Z
2019-06-23T03:09:43Z,42.805,6.029,13.2956,4.59961,2469.914,2019-6-23T05:10:00Z
2019-06-23T03:12:46Z,42.805,6.029,13.2953,4.59967,2469.914,2019-6-23T05:13:03Z
2019-06-23T03:15:49Z,42.805,6.029,13.2957,4.59958,2469.876,2019-6-23T05:16:06Z
2019-06-23T03:18:52Z,42.805,6.029,13.2955,4.59981,2469.89,2019-6-23T05:19:09Z
2019-06-23T03:21:55Z,42.805,6.029,13.2957,4.59966,2469.867,2019-6-23T05:22:12Z
2019-06-23T03:24:58Z,42.805,6.029,13.2955,4.59961,2469.914,2019-6-23T05:25:14Z
2019-06-23T03:28:01Z,42.805,6.029,13.2957,4.59960,2469.876,2019-6-23T05:28:17Z
2019-06-23T03:31:04Z,42.805,6.029,13.2960,4.59961,2469.876,2019-6-23T05:31:20Z
2019-06-23T03:34:07Z,42.805,6.029,13.2958,4.59966,2469.876,2019-6-23T05:34:23Z
2019-06-23T03:37:10Z,42.805,6.029,13.2957,4.59957,2469.9,2019-6-23T05:37:26Z
2019-06-23T03:40:13Z,42.805,6.029,13.2956,4.59962,2469.83,2019-6-23T05:40:29Z
2019-06-23T03:43:15Z,42.805,6.029,13.2958,4.59957,2469.89,2019-6-23T05:43:32Z
2019-06-23T03:46:18Z,42.805,6.029,13.2958,4.59957,2469.876,2019-6-23T05:46:35Z
2019-06-23T03:49:21Z,42.805,6.029,13.2953,4.59959,2469.867,2019-6-23T05:49:38Z
2019-06-23T03:52:24Z,42.805,6.029,13.2957,4.59958,2469.853,2019-6-23T05:52:41Z
2019-06-23T03:55:27Z,42.805,6.029,13.2958,4.59958,2469.853,2019-6-23T05:55:44Z
2019-06-23T03:58:30Z,42.805,6.029,13.2955,4.59960,2469.9,2019-6-23T05:58:47Z
2019-06-23T04:01:33Z,42.805,6.029,13.2954,4.59960,2469.89,2019-6-23T06:01:50Z
2019-06-23T04:04:36Z,42.805,6.029,13.2958,4.59960,2469.867,2019-6-23T06:04:53Z
2019-06-23T04:07:39Z,42.805,6.029,13.2958,4.59961,2469.844,2019-6-23T06:07:56Z
2019-06-23T04:10:42Z,42.805,6.029,13.2953,4.59964,2469.853,2019-6-23T06:10:59Z
2019-06-23T04:13:45Z,42.805,6.029,13.2959,4.59960,2469.876,2019-6-23T06:14:02Z
2019-06-23T04:16:48Z,42.805,6.029,13.2953,4.59964,2469.83,2019-6-23T06:17:05Z
2019-06-23T04:19:51Z,42.805,6.029,13.2958,4.59966,2469.83,2019-6-23T06:20:08Z
2019-06-23T04:22:54Z,42.805,6.029,13.2954,4.59970,2469.867,2019-6-23T06:23:11Z
2019-06-23T04:25:57Z,42.805,6.029,13.2957,4.59978,2469.83,2019-6-23T06:26:13Z
2019-06-23T04:29:00Z,42.805,6.029,13.2953,4.59988,2469.876,2019-6-23T06:29:16Z
2019-06-23T04:32:03Z,42.805,6.029,13.2960,4.59972,2469.853,2019-6-23T06:32:19Z
2019-06-23T04:35:06Z,42.805,6.029,13.2965,4.59963,2469.853,2019-6-23T06:35:22Z
2019-06-23T04:38:09Z,42.805,6.029,13.2962,4.59961,2469.844,2019-6-23T06:38:25Z
2019-06-23T04:41:12Z,42.805,6.029,13.2963,4.59961,2469.867,2019-6-23T06:41:28Z
2019-06-23T04:44:14Z,42.805,6.029,13.2958,4.59960,2469.876,2019-6-23T06:44:31Z
2019-06-23T04:47:17Z,42.805,6.029,13.2956,4.59959,2469.83,2019-6-23T06:47:34Z
2019-06-23T04:50:20Z,42.805,6.029,13.2960,4.59960,2469.867,2019-6-23T06:50:37Z
2019-06-23T04:53:23Z,42.805,6.029,13.2961,4.59964,2469.83,2019-6-23T06:53:40Z
2019-06-23T04:56:26Z,42.805,6.029,13.2963,4.59971,2469.89,2019-6-23T06:56:43Z
2019-06-23T04:59:29Z,42.805,6.029,13.2959,4.59958,2469.844,2019-6-23T06:59:46Z
2019-06-23T05:02:32Z,42.805,6.029,13.2961,4.59961,2469.806,2019-6-23T07:02:49Z
2019-06-23T05:05:35Z,42.805,6.029,13.2964,4.59961,2469.844,2019-6-23T07:05:52Z
2019-06-23T05:08:38Z,42.805,6.029,13.2967,4.59970,2469.83,2019-6-23T07:08:55Z
2019-06-23T05:11:41Z,42.805,6.029,13.2962,4.59961,2469.839,2019-6-23T07:11:58Z
2019-06-23T05:14:44Z,42.805,6.029,13.2963,4.59960,2469.83,2019-6-23T07:15:01Z
2019-06-23T05:17:47Z,42.805,6.029,13.2958,4.59964,2469.83,2019-6-23T07:18:04Z
2019-06-23T05:20:50Z,42.805,6.029,13.2957,4.59975,2469.853,2019-6-23T07:21:06Z
2019-06-23T05:23:53Z,42.805,6.029,13.2956,4.59961,2469.821,2019-6-23T07:24:09Z
2019-06-23T05:26:56Z,42.805,6.029,13.2961,4.59960,2469.83,2019-6-23T07:27:12Z
2019-06-23T05:29:59Z,42.805,6.029,13.2958,4.59957,2469.83,2019-6-23T07:30:15Z
2019-06-23T05:33:02Z,42.805,6.029,13.2961,4.59959,2469.867,2019-6-23T07:33:18Z
2019-06-23T05:36:05Z,42.805,6.029,13.2962,4.59958,2469.844,2019-6-23T07:36:21Z
2019-06-23T05:39:08Z,42.805,6.029,13.2961,4.59962,2469.83,2019-6-23T07:39:24Z
2019-06-23T05:42:10Z,42.805,6.029,13.2970,4.59963,2469.853,2019-6-23T07:42:27Z
2019-06-23T05:45:13Z,42.805,6.029,13.2967,4.59961,2469.821,2019-6-23T07:45:30Z
2019-06-23T05:48:16Z,42.805,6.029,13.2957,4.59960,2469.867,2019-6-23T07:48:33Z
2019-06-23T05:51:19Z,42.805,6.029,13.2960,4.59959,2469.867,2019-6-23T07:51:36Z
2019-06-23T05:54:22Z,42.805,6.029,13.2955,4.59964,2469.783,2019-6-23T07:54:39Z
2019-06-23T05:57:25Z,42.805,6.029,13.2957,4.59963,2469.853,2019-6-23T07:57:42Z
2019-06-23T06:00:28Z,42.805,6.029,13.2963,4.59963,2469.844,2019-6-23T08:00:45Z
2019-06-23T06:03:31Z,42.805,6.029,13.2958,4.59966,2469.83,2019-6-23T08:03:48Z
2019-06-23T06:06:34Z,42.805,6.029,13.2957,4.59976,2469.867,2019-6-23T08:06:51Z
2019-06-23T06:09:37Z,42.805,6.029,13.2963,4.59963,2469.806,2019-6-23T08:09:54Z
2019-06-23T06:12:40Z,42.805,6.029,13.2959,4.59964,2469.83,2019-6-23T08:12:57Z
2019-06-23T06:15:43Z,42.805,6.029,13.2957,4.59963,2469.83,2019-6-23T08:16:00Z
2019-06-23T06:18:46Z,42.805,6.029,13.2961,4.59968,2469.853,2019-6-23T08:19:03Z
2019-06-23T06:21:49Z,42.805,6.029,13.2968,4.59961,2469.83,2019-6-23T08:22:05Z
2019-06-23T06:24:52Z,42.805,6.029,13.2964,4.59961,2469.821,2019-6-23T08:25:08Z
2019-06-23T06:27:55Z,42.805,6.029,13.2971,4.59961,2469.821,2019-6-23T08:28:11Z
2019-06-23T06:30:58Z,42.805,6.029,13.2958,4.59961,2469.83,2019-6-23T08:31:14Z
2019-06-23T06:34:01Z,42.805,6.029,13.2958,4.59961,2469.821,2019-6-23T08:34:17Z
2019-06-23T06:37:04Z,42.805,6.029,13.2963,4.59958,2469.806,2019-6-23T08:37:20Z
2019-06-23T06:40:06Z,42.805,6.029,13.2969,4.59958,2469.806,2019-6-23T08:40:23Z
2019-06-23T06:43:09Z,42.805,6.029,13.2961,4.59958,2469.867,2019-6-23T08:43:26Z
2019-06-23T06:46:12Z,42.805,6.029,13.2962,4.59962,2469.844,2019-6-23T08:46:29Z
2019-06-23T06:49:15Z,42.805,6.029,13.2967,4.59963,2469.844,2019-6-23T08:49:32Z
2019-06-23T06:52:18Z,42.805,6.029,13.2967,4.59959,2469.806,2019-6-23T08:52:35Z
2019-06-23T06:55:21Z,42.805,6.029,13.2964,4.59958,2469.853,2019-6-23T08:55:38Z
2019-06-23T06:58:24Z,42.805,6.029,13.2972,4.59960,2469.83,2019-6-23T08:58:41Z
2019-06-23T07:01:27Z,42.805,6.029,13.2968,4.59963,2469.821,2019-6-23T09:01:44Z
2019-06-23T07:04:30Z,42.805,6.029,13.2967,4.59964,2469.83,2019-6-23T09:04:47Z
2019-06-23T07:07:33Z,42.805,6.029,13.2969,4.59968,2469.821,2019-6-23T09:07:50Z
2019-06-23T07:10:36Z,42.805,6.029,13.2965,4.59963,2469.806,2019-6-23T09:10:53Z
2019-06-23T07:13:39Z,42.805,6.029,13.2957,4.59968,2469.844,2019-6-23T09:13:56Z
2019-06-23T07:16:42Z,42.805,6.029,13.2968,4.59966,2469.806,2019-6-23T09:16:59Z
2019-06-23T07:19:45Z,42.805,6.029,13.2967,4.59962,2469.83,2019-6-23T09:20:01Z
2019-06-23T07:22:48Z,42.805,6.029,13.2960,4.59977,2469.797,2019-6-23T09:23:04Z
2019-06-23T07:25:51Z,42.805,6.029,13.2961,4.59968,2469.806,2019-6-23T09:26:07Z
2019-06-23T07:28:54Z,42.805,6.029,13.2964,4.59979,2469.83,2019-6-23T09:29:10Z
2019-06-23T07:31:57Z,42.805,6.029,13.2963,4.59961,2469.83,2019-6-23T09:32:13Z
2019-06-23T07:35:00Z,42.805,6.029,13.2963,4.59961,2469.83,2019-6-23T09:35:16Z
2019-06-23T07:38:03Z,42.805,6.029,13.2961,4.59971,2469.83,2019-6-23T09:38:19Z
2019-06-23T07:41:05Z,42.805,6.029,13.2961,4.59979,2469.83,2019-6-23T09:41:22Z
2019-06-23T07:44:08Z,42.805,6.029,13.2958,4.59961,2469.853,2019-6-23T09:44:25Z
2019-06-23T07:47:11Z,42.805,6.029,13.2959,4.59979,2469.83,2019-6-23T09:47:28Z
2019-06-23T07:50:14Z,42.805,6.029,13.2953,4.59960,2469.89,2019-6-23T09:50:31Z
2019-06-23T07:53:17Z,42.805,6.029,13.2957,4.59955,2469.853,2019-6-23T09:53:34Z
2019-06-23T07:56:20Z,42.805,6.029,13.2957,4.59956,2469.853,2019-6-23T09:56:37Z
2019-06-23T07:59:23Z,42.805,6.029,13.2958,4.59955,2469.876,2019-6-23T09:59:40Z
2019-06-23T08:02:26Z,42.805,6.029,13.2953,4.59956,2469.83,2019-6-23T10:02:43Z
2019-06-23T08:05:29Z,42.805,6.029,13.2956,4.59955,2469.806,2019-6-23T10:05:46Z
2019-06-23T08:08:32Z,42.805,6.029,13.2957,4.59956,2469.867,2019-6-23T10:08:49Z
2019-06-23T08:11:35Z,42.805,6.029,13.2954,4.59955,2469.867,2019-6-23T10:11:52Z
2019-06-23T08:14:38Z,42.805,6.029,13.2957,4.59956,2469.876,2019-6-23T10:14:55Z
2019-06-23T08:17:41Z,42.805,6.029,13.2956,4.59960,2469.867,2019-6-23T10:17:58Z
2019-06-23T08:20:44Z,42.805,6.029,13.2956,4.59963,2469.876,2019-6-23T10:21:01Z
2019-06-23T08:23:47Z,42.805,6.029,13.2958,4.59958,2469.793,2019-6-23T10:24:03Z
2019-06-23T08:26:50Z,42.805,6.029,13.2955,4.59960,2469.89,2019-6-23T10:27:06Z
2019-06-23T08:29:53Z,42.805,6.029,13.2958,4.59962,2469.867,2019-6-23T10:30:09Z
2019-06-23T08:32:56Z,42.805,6.029,13.2957,4.59968,2469.806,2019-6-23T10:33:12Z
2019-06-23T08:35:59Z,42.805,6.029,13.2957,4.59964,2469.876,2019-6-23T10:36:15Z
2019-06-23T08:39:02Z,42.805,6.029,13.2957,4.59973,2469.83,2019-6-23T10:39:18Z
2019-06-23T08:42:04Z,42.805,6.029,13.2957,4.59975,2469.83,2019-6-23T10:42:21Z
2019-06-23T08:45:07Z,42.805,6.029,13.2958,4.59969,2469.89,2019-6-23T10:45:24Z
2019-06-23T08:48:10Z,42.805,6.029,13.2955,4.59964,2469.876,2019-6-23T10:48:27Z
2019-06-23T08:51:13Z,42.805,6.029,13.2958,4.59959,2469.853,2019-6-23T10:51:30Z
2019-06-23T08:54:16Z,42.805,6.029,13.2957,4.59966,2469.876,2019-6-23T10:54:33Z
2019-06-23T08:57:19Z,42.805,6.029,13.2957,4.59967,2469.867,2019-6-23T10:57:36Z
2019-06-23T09:00:22Z,42.805,6.029,13.2954,4.59966,2469.867,2019-6-23T11:00:39Z
2019-06-23T09:03:25Z,42.805,6.029,13.2958,4.59971,2469.867,2019-6-23T11:03:42Z
2019-06-23T09:06:28Z,42.805,6.029,13.2957,4.59962,2469.876,2019-6-23T11:06:45Z
2019-06-23T09:09:31Z,42.805,6.029,13.2957,4.59961,2469.853,2019-6-23T11:09:48Z
2019-06-23T09:12:34Z,42.805,6.029,13.2959,4.59966,2469.853,2019-6-23T11:12:51Z
2019-06-23T09:15:37Z,42.805,6.029,13.2961,4.59980,2469.844,2019-6-23T11:15:54Z
2019-06-23T09:18:40Z,42.805,6.029,13.2957,4.59960,2469.89,2019-6-23T11:18:57Z
2019-06-23T09:21:43Z,42.805,6.029,13.2958,4.59960,2469.937,2019-6-23T11:22:00Z
2019-06-23T09:24:46Z,42.805,6.029,13.2966,4.59964,2469.89,2019-6-23T11:25:02Z
2019-06-23T09:27:49Z,42.805,6.029,13.2968,4.59959,2469.853,2019-6-23T11:28:05Z
2019-06-23T09:30:52Z,42.805,6.029,13.2972,4.59961,2469.853,2019-6-23T11:31:08Z
2019-06-23T09:33:55Z,42.805,6.029,13.2971,4.59961,2469.853,2019-6-23T11:34:11Z
2019-06-23T09:36:58Z,42.805,6.029,13.2959,4.59959,2469.853,2019-6-23T11:37:14Z
2019-06-23T09:40:01Z,42.805,6.029,13.2963,4.59960,2469.876,2019-6-23T11:40:17Z
2019-06-23T09:43:04Z,42.805,6.029,13.2959,4.59960,2469.867,2019-6-23T11:43:20Z
2019-06-23T09:46:06Z,42.805,6.029,13.2971,4.59961,2469.867,2019-6-23T11:46:23Z
2019-06-23T09:49:09Z,42.805,6.029,13.2965,4.59968,2469.9,2019-6-23T11:49:26Z
2019-06-23T09:52:12Z,42.805,6.029,13.2972,4.59967,2469.914,2019-6-23T11:52:29Z
2019-06-23T09:55:15Z,42.805,6.029,13.2964,4.59964,2469.867,2019-6-23T11:55:32Z
2019-06-23T09:58:18Z,42.805,6.029,13.2974,4.59969,2469.876,2019-6-23T11:58:35Z
2019-06-23T10:01:21Z,42.805,6.029,13.2968,4.59970,2469.853,2019-6-23T12:01:38Z
2019-06-23T10:04:24Z,42.805,6.029,13.2957,4.59968,2469.9,2019-6-23T12:04:41Z
2019-06-23T10:07:27Z,42.805,6.029,13.2961,4.59961,2469.853,2019-6-23T12:07:44Z
2019-06-23T10:10:30Z,42.805,6.029,13.2968,4.59960,2469.867,2019-6-23T12:10:47Z
2019-06-23T10:13:33Z,42.805,6.029,13.2961,4.59962,2469.876,2019-6-23T12:13:50Z
2019-06-23T10:16:36Z,42.805,6.029,13.2958,4.59964,2469.867,2019-6-23T12:16:53Z
2019-06-23T10:19:39Z,42.805,6.029,13.2956,4.59970,2469.89,2019-6-23T12:19:56Z
2019-06-23T10:22:42Z,42.805,6.029,13.2954,4.59966,2469.9,2019-6-23T12:22:59Z
2019-06-23T10:25:45Z,42.805,6.029,13.2953,4.59966,2469.867,2019-6-23T12:26:02Z
2019-06-23T10:28:48Z,42.805,6.029,13.2953,4.59963,2469.876,2019-6-23T12:29:05Z
2019-06-23T10:31:51Z,42.805,6.029,13.2958,4.59966,2469.89,2019-6-23T12:32:07Z
2019-06-23T10:34:54Z,42.805,6.029,13.2953,4.59964,2469.867,2019-6-23T12:35:10Z
2019-06-23T10:37:57Z,42.805,6.029,13.2955,4.59960,2469.853,2019-6-23T12:38:13Z
2019-06-23T10:41:00Z,42.805,6.029,13.2959,4.59964,2469.89,2019-6-23T12:41:16Z
2019-06-23T10:44:03Z,42.805,6.029,13.2955,4.59961,2469.89,2019-6-23T12:44:19Z
2019-06-23T10:47:06Z,42.805,6.029,13.2953,4.59967,2469.853,2019-6-23T12:47:23Z
2019-06-23T10:50:09Z,42.805,6.029,13.2957,4.59966,2469.876,2019-6-23T12:50:26Z
2019-06-23T10:53:12Z,42.805,6.029,13.2957,4.59961,2469.876,2019-6-23T12:53:29Z
2019-06-23T10:56:15Z,42.805,6.029,13.2956,4.59960,2469.9,2019-6-23T12:56:32Z
2019-06-23T10:59:18Z,42.805,6.029,13.2957,4.59962,2469.853,2019-6-23T12:59:35Z
2019-06-23T11:02:21Z,42.805,6.029,13.2957,4.59962,2469.876,2019-6-23T13:02:38Z
2019-06-23T11:05:24Z,42.805,6.029,13.2957,4.59965,2469.876,2019-6-23T13:05:41Z
2019-06-23T11:08:27Z,42.805,6.029,13.2957,4.59963,2469.89,2019-6-23T13:08:44Z
2019-06-23T11:11:30Z,42.805,6.029,13.2958,4.59968,2469.876,2019-6-23T13:11:47Z
2019-06-23T11:14:33Z,42.805,6.029,13.2955,4.59966,2469.83,2019-6-23T13:14:50Z
2019-06-23T11:17:36Z,42.805,6.029,13.2957,4.59976,2469.89,2019-6-23T13:17:52Z
2019-06-23T11:20:39Z,42.805,6.029,13.2961,4.59962,2469.853,2019-6-23T13:20:55Z
2019-06-23T11:23:42Z,42.805,6.029,13.2959,4.59962,2469.853,2019-6-23T13:23:58Z
2019-06-23T11:26:45Z,42.805,6.029,13.2956,4.59966,2469.876,2019-6-23T13:27:01Z
2019-06-23T11:29:48Z,42.805,6.029,13.2959,4.59969,2469.853,2019-6-23T13:30:04Z
2019-06-23T11:32:51Z,42.805,6.029,13.2957,4.59964,2469.9,2019-6-23T13:33:07Z
2019-06-23T11:35:53Z,42.805,6.029,13.2956,4.59963,2469.876,2019-6-23T13:36:10Z
2019-06-23T11:38:56Z,42.805,6.029,13.2954,4.59965,2469.876,2019-6-23T13:39:13Z
2019-06-23T11:41:59Z,42.805,6.029,13.2959,4.59975,2469.914,2019-6-23T13:42:16Z
2019-06-23T11:45:02Z,42.805,6.029,13.2958,4.59972,2469.867,2019-6-23T13:45:19Z
2019-06-23T11:48:05Z,42.805,6.029,13.2958,4.59969,2469.89,2019-6-23T13:48:22Z
2019-06-23T11:51:08Z,42.805,6.029,13.2957,4.59962,2469.853,2019-6-23T13:51:25Z
2019-06-23T11:54:11Z,42.805,6.029,13.2953,4.59962,2469.89,2019-6-23T13:54:28Z
2019-06-23T11:57:14Z,42.805,6.029,13.2957,4.59961,2469.867,2019-6-23T13:57:31Z
2019-06-23T12:00:17Z,42.805,6.029,13.2957,4.59966,2469.83,2019-6-23T14:00:34Z
2019-06-23T12:03:20Z,42.805,6.029,13.2953,4.59975,2469.853,2019-6-23T14:03:37Z
2019-06-23T12:06:23Z,42.805,6.029,13.2957,4.59966,2469.853,2019-6-23T14:06:40Z
2019-06-23T12:09:26Z,42.805,6.029,13.2956,4.59961,2469.876,2019-6-23T14:09:43Z
2019-06-23T12:12:29Z,42.805,6.029,13.2953,4.59976,2469.853,2019-6-23T14:12:46Z
2019-06-23T12:15:32Z,42.805,6.029,13.2955,4.59969,2469.89,2019-6-23T14:15:49Z
2019-06-23T12:18:35Z,42.805,6.029,13.2958,4.59964,2469.844,2019-6-23T14:18:52Z
2019-06-23T12:21:38Z,42.805,6.029,13.2957,4.59970,2469.844,2019-6-23T14:21:54Z
2019-06-23T12:24:41Z,42.805,6.029,13.2958,4.59985,2469.876,2019-6-23T14:24:57Z
2019-06-23T12:27:44Z,42.805,6.029,13.2957,4.59986,2469.876,2019-6-23T14:28:00Z
2019-06-23T12:30:47Z,42.805,6.029,13.2955,4.59980,2469.914,2019-6-23T14:31:03Z
2019-06-23T12:33:50Z,42.805,6.029,13.2957,4.59968,2469.853,2019-6-23T14:34:06Z
2019-06-23T12:36:53Z,42.805,6.029,13.2958,4.59981,2469.844,2019-6-23T14:37:09Z
2019-06-23T12:39:56Z,42.805,6.029,13.2953,4.59961,2469.867,2019-6-23T14:40:12Z
2019-06-23T12:42:58Z,42.805,6.029,13.2953,4.59980,2469.83,2019-6-23T14:43:15Z
2019-06-23T12:46:01Z,42.805,6.029,13.2957,4.59973,2469.853,2019-6-23T14:46:18Z
2019-06-23T12:49:04Z,42.805,6.029,13.2957,4.59962,2469.83,2019-6-23T14:49:21Z
2019-06-23T12:52:07Z,42.805,6.029,13.2956,4.59966,2469.867,2019-6-23T14:52:24Z
2019-06-23T12:55:10Z,42.805,6.029,13.2955,4.59962,2469.853,2019-6-23T14:55:27Z
2019-06-23T12:58:13Z,42.805,6.029,13.2953,4.59966,2469.83,2019-6-23T14:58:30Z
2019-06-23T13:01:16Z,42.805,6.029,13.2953,4.59963,2469.844,2019-6-23T15:01:33Z
2019-06-23T13:04:19Z,42.805,6.029,13.2957,4.59979,2469.853,2019-6-23T15:04:36Z
2019-06-23T13:07:22Z,42.805,6.029,13.2954,4.59968,2469.844,2019-6-23T15:07:39Z
2019-06-23T13:10:25Z,42.805,6.029,13.2958,4.59983,2469.844,2019-6-23T15:10:42Z
2019-06-23T13:13:28Z,42.805,6.029,13.2959,4.59983,2469.83,2019-6-23T15:13:45Z
2019-06-23T13:16:31Z,42.805,6.029,13.2961,4.59988,2469.844,2019-6-23T15:16:48Z
2019-06-23T13:19:34Z,42.805,6.029,13.2956,4.59978,2469.806,2019-6-23T15:19:51Z
2019-06-23T13:22:37Z,42.805,6.029,13.2955,4.59966,2469.821,2019-6-23T15:22:54Z
2019-06-23T13:25:40Z,42.805,6.029,13.2954,4.59968,2469.853,2019-6-23T15:25:57Z
2019-06-23T13:28:43Z,42.805,6.029,13.2953,4.59967,2469.867,2019-6-23T15:28:59Z
2019-06-23T13:31:46Z,42.805,6.029,13.2952,4.59967,2469.83,2019-6-23T15:32:02Z
2019-06-23T13:34:49Z,42.805,6.029,13.2952,4.59964,2469.83,2019-6-23T15:35:05Z
2019-06-23T13:37:52Z,42.805,6.029,13.2954,4.59993,2469.821,2019-6-23T15:38:08Z
2019-06-23T13:40:55Z,42.805,6.029,13.2957,4.59976,2469.821,2019-6-23T15:41:11Z
2019-06-23T13:43:58Z,42.805,6.029,13.2952,4.59976,2469.853,2019-6-23T15:44:14Z
2019-06-23T13:47:00Z,42.805,6.029,13.2956,4.59964,2469.83,2019-6-23T15:47:17Z
2019-06-23T13:50:03Z,42.805,6.029,13.2954,4.59974,2469.806,2019-6-23T15:50:20Z
2019-06-23T13:53:06Z,42.805,6.029,13.2957,4.59970,2469.797,2019-6-23T15:53:23Z
2019-06-23T13:56:09Z,42.805,6.029,13.2958,4.59965,2469.89,2019-6-23T15:56:26Z
2019-06-23T13:59:12Z,42.805,6.029,13.2957,4.59965,2469.806,2019-6-23T15:59:29Z
2019-06-23T14:02:15Z,42.805,6.029,13.2955,4.59962,2469.83,2019-6-23T16:02:32Z
2019-06-23T14:05:18Z,42.805,6.029,13.2956,4.59964,2469.83,2019-6-23T16:05:35Z
2019-06-23T14:08:21Z,42.805,6.029,13.2956,4.59964,2469.844,2019-6-23T16:08:38Z
2019-06-23T14:11:24Z,42.805,6.029,13.2958,4.59962,2469.853,2019-6-23T16:11:41Z
2019-06-23T14:14:27Z,42.805,6.029,13.2958,4.59966,2469.83,2019-6-23T16:14:44Z
2019-06-23T14:17:30Z,42.805,6.029,13.2958,4.59971,2469.83,2019-6-23T16:17:47Z
2019-06-23T14:20:33Z,42.805,6.029,13.2958,4.59962,2469.853,2019-6-23T16:20:50Z
2019-06-23T14:23:36Z,42.805,6.029,13.2959,4.59961,2469.844,2019-6-23T16:23:53Z
2019-06-23T14:26:39Z,42.805,6.029,13.2959,4.59962,2469.853,2019-6-23T16:26:56Z
2019-06-23T14:29:42Z,42.805,6.029,13.2955,4.59959,2469.821,2019-6-23T16:29:59Z
2019-06-23T14:32:45Z,42.805,6.029,13.2958,4.59962,2469.83,2019-6-23T16:33:02Z
2019-06-23T14:35:48Z,42.805,6.029,13.2955,4.59961,2469.821,2019-6-23T16:36:04Z
2019-06-23T14:38:51Z,42.805,6.029,13.2955,4.59960,2469.821,2019-6-23T16:39:07Z
2019-06-23T14:41:54Z,42.805,6.029,13.2957,4.59962,2469.83,2019-6-23T16:42:10Z
2019-06-23T14:44:57Z,42.805,6.029,13.2957,4.59966,2469.821,2019-6-23T16:45:13Z
2019-06-23T14:48:00Z,42.805,6.029,13.2958,4.59963,2469.867,2019-6-23T16:48:16Z
2019-06-23T14:51:02Z,42.805,6.029,13.2957,4.59960,2469.83,2019-6-23T16:51:19Z
2019-06-23T14:54:05Z,42.805,6.029,13.2956,4.59959,2469.844,2019-6-23T16:54:22Z
2019-06-23T14:57:08Z,42.805,6.029,13.2955,4.59961,2469.806,2019-6-23T16:57:25Z
2019-06-23T15:00:11Z,42.805,6.029,13.2958,4.59965,2469.806,2019-6-23T17:00:28Z
2019-06-23T15:03:14Z,42.805,6.029,13.2958,4.59960,2469.821,2019-6-23T17:03:31Z
2019-06-23T15:06:17Z,42.805,6.029,13.2957,4.59964,2469.797,2019-6-23T17:06:34Z
2019-06-23T15:09:20Z,42.805,6.029,13.2958,4.59958,2469.783,2019-6-23T17:09:37Z
2019-06-23T15:12:23Z,42.805,6.029,13.2955,4.59961,2469.806,2019-6-23T17:12:40Z